Regional Weather Roundup
Issued by NWS

Home | Current Version | Previous Version | Text Only | Print | Product List | Glossary Off
Versions: 1 2 3 4 5 6 7 8 9 10 11 12 13 14 15 16 17 18 19 20 21 22 23 24 25 26 27 28 29 30 31 32 33 34 35 36 37 38 39 40 41 42 43 44 45 46 47 48 49 50

000
ASUS45 KTFX 100610
RWRMT
MONTANA REGIONAL WEATHER ROUNDUP
NATIONAL WEATHER SERVICE GREAT FALLS MT
1100 PM MST FRI DEC 09 2016

NOTE: "FAIR" INDICATES FEW OR NO CLOUDS BELOW 12000 FEET WITH NO
SIGNIFICANT WEATHER AND/OR OBSTRUCTIONS TO VISIBILITY.

MTZ001>007-043-100700-
WEST OF THE DIVIDE

CITY           SKY/WX    TMP DP  RH WIND       PRES   REMARKS
KALISPELL      LGT SNOW  10   7  87 NE3       29.98F FOG
MISSOULA       LGT SNOW  16  14  92 CALM      29.98F VSB 1
BUTTE          LGT SNOW  20  18  92 CALM      29.87F FOG
MULLAN PASS    LGT SNOW  20  18  92 VRB5      29.76R FOG
ANACONDA         N/A     12   7  79 CALM      29.89S
DEER LODGE       N/A     14   9  79 CALM      29.92F
EUREKA           N/A      7   1  78 CALM      30.05F
HAMILTON         N/A     16  12  86 CALM      29.94F
LIBBY            N/A     12   9  85 CALM      30.02F
PLAINS           N/A     15   8  73 CALM      30.02F
RONAN            N/A     12   7  81 CALM      29.99F
THOMPSON FALLS   N/A     16  12  84 NE7       30.03F WCI   6
$$

MTZ008-052>055-100700-
SOUTHWEST MONTANA

CITY           SKY/WX    TMP DP  RH WIND       PRES   REMARKS
BOZEMAN        LGT SNOW  10   6  84 NW3       29.96F FOG
DILLON         CLOUDY    12   8  84 SE3       29.88F
W YELLOWSTONE  MIX PCPN  25  23  93 SE3       29.93F
ENNIS          CLOUDY    32  25  74 S13G21    29.92S WCI  22
THREE FORKS      N/A     11 -28  15 CALM      29.96F
TWIN BRIDGES     N/A     13   5  70 CALM      29.91F
$$

MTZ009-010-012-014-046-048-049-054-100700-
EAST SLOPES AND CENTRAL MONTANA

CITY           SKY/WX    TMP DP  RH WIND       PRES   REMARKS
CUT BANK       CLOUDY    -1  -5  82 SE10      29.98F WCI -17
GREAT FALLS    CLOUDY     0  -4  83 SE3       30.00F
MALMSTROM AFB  CLOUDY     0  -2  90 SE2       30.03F
HELENA         CLOUDY     7   1  76 NE5       30.00F
AUGUSTA        CLOUDY    -5  -8  85 S3        29.91F
BOWMANS CRNR   MOCLDY    -6  -9  86 NE5       29.91F
CHOTEAU          N/A     -6  -9  84 MISG      29.99F
CONRAD           N/A      0  -4  82 NE5       30.01F
FAIRFIELD      MOCLDY    -5 -10  79 NW2       29.98F
POWER            N/A     -4  -8  84 E6        29.99F WCI -16
RAYNESFORD     MOCLDY     2  -2  81 E9        29.97F WCI -12
ULM            MOCLDY    -2  -6  83 N7        30.01F WCI -16
$$

MTZ011-013-016-021-045-047-050-051-100700-
NORTH CENTRAL MONTANA

CITY           SKY/WX    TMP DP  RH WIND       PRES   REMARKS
HAVRE          CLOUDY     2  -3  80 E9        30.14F WCI -13
LEWISTOWN      CLOUDY     4  -1  80 NE3       29.96F
N BAR RANCH    CLOUDY     5  -2  72 NE5       29.95F
CHINOOK          N/A      1  -4  78 E13       30.18F WCI -16
DENTON         MOCLDY     5   2  88 E17       29.99F WCI -15
FORT BENTON      N/A      7   0  72 N6        30.10F WCI  -3
GEYSER         MOCLDY     2  -1  87 E3        29.97F
GRASS RANGE    CLOUDY     3   1  89 NW5       29.97F
JUDITH GAP     FLURRIES   2  -1  85 MISG      29.94F
ROY            MOCLDY     3   1  90 MISG      30.02F
STANFORD       MOCLDY     0  -2  90 NW7       29.94S WCI -13
WINIFRED       MOCLDY     3   1  90 MISG      30.01F
$$

MTZ017>020-022>027-061-062-100700-
NORTHEAST MONTANA

CITY           SKY/WX    TMP DP  RH WIND       PRES   REMARKS
GLASGOW        CLOUDY    -5 -10  79 E14       30.29S WCI -25
JORDAN           N/A      0  -5  79 E10       30.20F WCI -16
SIDNEY         CLOUDY   -13 -18  78 N3        30.41F
WOLF POINT     CLOUDY    -7 -14  71 E7        30.39F WCI -21
PLENTYWOOD       N/A    -13 -18  77 CALM      30.37F
POPLAR           N/A     -9 -15  77 NE5       30.40F
SCOBEY           N/A    -10 -22  55 S1        30.28F
$$

MTZ028>42-056>058-100700-
SOUTHCENTRAL AND SOUTHEAST MONTANA

CITY           SKY/WX    TMP DP  RH WIND       PRES   REMARKS
BAKER          CLOUDY    -4  -8  83 SE14      30.25F WCI -24
BILLINGS       LGT SNOW   5   1  83 NE7       30.05F FOG     WCI  -7
LIVINGSTON     LGT SNOW   7   2  80 CALM      29.95F
MILES CITY     CLOUDY     4  -2  76 E7        30.23F WCI  -8
BIG TIMBER     CLOUDY     5   3  92 CALM      30.01S FOG
EKALAKA          N/A     -1  -9  69 SE16      30.09F WCI -21
FORSYTH          N/A      5   0  78 E9        30.17F WCI  -9
HARLOWTON      FLURRIES   3   0  86 S2        29.99F
LAUREL           N/A      6  -3  66 N5        30.03F VSB 1
ROUNDUP          N/A      6  -2  70 E3        29.97F
$$

REGIONAL REPORTS...DAKOTAS

CITY           SKY/WX    TMP DP  RH WIND       PRES   REMARKS
WILLISTON      CLOUDY   -16 -22  74 CALM      30.42F
MINOT          CLOUDY   -16 -21  78 SW8       30.47F WCI -34
DICKINSON      CLOUDY   -16 -21  78 S6        30.32F WCI -31
BEACH            N/A     -8 -11  84 SE12      30.32F WCI -27
CROSBY           N/A    -18 -24  76 S3        30.44F
TIOGA            N/A    -20 -26  76 CALM      30.39F
WATFORD CITY     N/A    -18 -24  76 CALM      30.40F
BISMARCK       CLOUDY   -17 -21  82 CALM      30.51F
GRAND FORKS    CLOUDY    -3  -8  79 NW7       30.56S WCI -16
FARGO          CLOUDY    -6 -13  71 W6        30.57R WCI -19
BUFFALO SD       N/A     -3  -8  79 SE13      30.18F WCI -22
RAPID CITY     CLOUDY     2  -2  83 SE14      30.25F WCI -16
$$

REGIONAL REPORTS...WYOMING/IDAHO/WASHINGTON

CITY           SKY/WX    TMP DP  RH WIND       PRES   REMARKS
GILLETTE       CLOUDY    11   6  81 S12       30.05S WCI  -3
SHERIDAN       CLOUDY    10   4  76 N3        30.03F
BUFFALO WY     CLOUDY     9   2  73 S9G28     29.97F WCI  -4
CODY           CLOUDY     6   2  83 CALM      29.93F
YELLOWSTONE LA   N/A     26  23  88 VRB7G20   29.90F WCI  18
IDAHO FALLS    LGT SNOW  27  24  89 N3        29.99F FOG
SALMON         CLOUDY    18  18 100 CALM      29.97F
BOISE          CLOUDY    30  29  96 CALM      29.99F FOG
SPOKANE        LGT SNOW  19  16  88 E10       29.92F FOG     WCI   7
$$

REGIONAL REPORTS...ALBERTA

CITY           SKY/WX    TMP DP  RH WIND       PRES   REMARKS
EDMONTON       CLEAR    -17 -24  70 E6        30.19F WCI -31
CALGARY        CRYSTALS  -8 -13  77 S12       29.98F WCI -27
LETHBRIDGE     FLURRIES   0  -4  85 SE6       30.06F WCI -12
MEDICINE HAT   CLEAR     -9 -13  84 NE5       30.18F
WATERTON GATE    N/A     -4  -9  77 NE5         N/A
MILK RIVER       N/A      1  -2  85 S10         N/A  WCI -14
$$

REGIONAL REPORTS...SASKATCHEWAN

CITY           SKY/WX    TMP DP  RH WIND       PRES   REMARKS
SWIFT CURRENT  FLURRIES  -2  -6  84 SE9       30.21F WCI -18
REGINA         CLEAR    -15 -20  76 SE6       30.40F WCI -29
SASKATOON      CRYSTALS  -9 -15  77 SE2       30.41F
CYPRESS HILLS    N/A     -8 -11  84 SE8         N/A  WCI -23
VAL MARIE        N/A     -4  -9  77 S1          N/A
ROCKGLEN         N/A     -9 -13  84 S15         N/A  WCI -31
$$



USA.gov is the U.S. government's official web portal to all federal, state and local government web resources and services.